Weather History for Novato, CA

Change the Weather History Date:

Wednesday, October 9, 2013

  Actual Average (KAPC) Record (KAPC)
Temperature  
Mean Temperature 14 °C 16 °C  
Max Temperature 22 °C 24 °C 31 °C (1999)
Min Temperature 8 °C 7 °C 2 °C (2008)
Degree Days  
Heating Degree Days 6    
Month to date heating degree days  
Since 1 July heating degree days  
Cooling Degree Days 0    
Month to date cooling degree days  
Year to date cooling degree days  
Growing Degree Days 8 (Base 50)    
Moisture  
Dew Point 5 °C    
Average Humidity 54    
Maximum Humidity 93    
Minimum Humidity 31    
Precipitation  
Precipitation 0.00 mm - 3.00 mm (1947)
Month to date precipitation  
Year to date precipitation  
Since 1 July precipitation  
Sea Level Pressure  
Sea Level Pressure 1005 hPa    
Wind  
Wind Speed 8 km/h (WNW)    
Max Wind Speed 27 km/h    
Max Gust Speed 39 km/h    
Visibility 16 kilometers    
Events      
T = Trace of Precipitation, MM = Missing Value Source: NWS Daily Summary

Daily Weather History Graph

Daily Weather History Graph

Search for Another Location

Airport:

Trip Planner

Search our weather history database for the weather conditions in past years. The results will help you decide how hot, cold, wet, or windy it might be!

Date:

Astronomy

Oct. 09, 2013 Rise Set
Actual Time 7:13 AM PDT 6:40 PM PDT
Civil Twilight 6:47 AM PDT 7:06 PM PDT
Nautical Twilight 6:16 AM PDT 7:37 PM PDT
Astronomical Twilight 5:45 AM PDT 8:07 PM PDT
Moon 12:10 PM PDT (10/9) 10:24 PM PDT (10/9)
Length of Visible Light 12h 19m
Length of Day
11h 27m
Waxing Crescent, 26% of the Moon is Illuminated
Oct 9
Waxing Crescent
Oct 11
First Quarter
Oct 18
Full
Oct 26
Last Quarter
Nov 3
New

Hourly Weather History & Observations

Time (PDT) Temp. Windchill Dew Point Humidity Pressure Visibility Wind Dir Wind Speed Gust Speed Precip Events Conditions
12:15 AM 13.0 °C - 6.0 °C 63% 1006.3 hPa 16.1 km East 5.6 km/h / 1.5 m/s - N/A   Clear
12:35 AM 13.0 °C - 6.0 °C 63% 1006.0 hPa 16.1 km Calm Calm - N/A   Clear
12:55 AM 13.0 °C - 6.0 °C 63% 1006.0 hPa 16.1 km Calm Calm - N/A   Clear
1:15 AM 12.0 °C - 6.0 °C 67% 1005.6 hPa 16.1 km WSW 7.4 km/h / 2.1 m/s - N/A   Clear
1:35 AM 13.0 °C - 6.0 °C 63% 1005.6 hPa 16.1 km SW 5.6 km/h / 1.5 m/s - N/A   Clear
1:55 AM 13.0 °C - 6.0 °C 63% 1005.3 hPa 16.1 km South 5.6 km/h / 1.5 m/s - N/A   Clear
2:15 AM 13.0 °C - 6.0 °C 63% 1005.6 hPa 16.1 km WSW 7.4 km/h / 2.1 m/s - N/A   Clear
2:35 AM 12.0 °C - 6.0 °C 67% 1005.3 hPa 16.1 km SSW 7.4 km/h / 2.1 m/s - N/A   Clear
2:55 AM 11.0 °C - 7.0 °C 76% 1005.0 hPa 16.1 km SSW 9.3 km/h / 2.6 m/s - N/A   Clear
3:15 AM 11.0 °C - 7.0 °C 76% 1005.0 hPa 16.1 km SSW 11.1 km/h / 3.1 m/s - N/A   Clear
3:35 AM 10.0 °C - 7.0 °C 82% 1004.6 hPa 16.1 km SSW 16.7 km/h / 4.6 m/s - N/A   Partly Cloudy
3:55 AM 11.0 °C - 7.0 °C 76% 1004.3 hPa 16.1 km SSW 9.3 km/h / 2.6 m/s - N/A   Unknown
4:15 AM 8.0 °C 7.3 °C 6.0 °C 87% 1004.6 hPa 16.1 km North 5.6 km/h / 1.5 m/s - N/A   Partly Cloudy
4:35 AM 8.0 °C - 6.0 °C 87% 1004.3 hPa 16.1 km Calm Calm - N/A   Clear
4:55 AM 8.0 °C - 6.0 °C 87% 1003.9 hPa 16.1 km Calm Calm - N/A   Clear
5:15 AM 8.0 °C - 7.0 °C 93% 1003.9 hPa 16.1 km Calm Calm - N/A   Clear
5:35 AM 10.0 °C - 7.0 °C 82% 1003.9 hPa 16.1 km Calm Calm - N/A   Clear
5:55 AM 10.0 °C - 7.0 °C 82% 1003.6 hPa 16.1 km Calm Calm - N/A   Clear
6:15 AM 12.0 °C - 6.0 °C 67% 1003.6 hPa 16.1 km NW 14.8 km/h / 4.1 m/s - N/A   Clear
6:35 AM 12.0 °C - 6.0 °C 67% 1003.6 hPa 16.1 km NW 16.7 km/h / 4.6 m/s - N/A   Clear
6:55 AM 12.0 °C - 6.0 °C 67% 1003.6 hPa 16.1 km NNW 16.7 km/h / 4.6 m/s - N/A   Clear
7:15 AM 12.0 °C - 6.0 °C 67% 1003.6 hPa 16.1 km NNW 11.1 km/h / 3.1 m/s - N/A   Clear
7:35 AM 12.0 °C - 6.0 °C 67% 1003.9 hPa 16.1 km NW 16.7 km/h / 4.6 m/s - N/A   Partly Cloudy
7:55 AM 12.0 °C - 6.0 °C 67% 1003.9 hPa 16.1 km NW 14.8 km/h / 4.1 m/s - N/A   Partly Cloudy
8:15 AM 13.0 °C - 6.0 °C 63% 1003.9 hPa 16.1 km NW 13.0 km/h / 3.6 m/s - N/A   Clear
8:35 AM 13.0 °C - 5.0 °C 58% 1003.9 hPa 16.1 km NW 14.8 km/h / 4.1 m/s - N/A   Clear
8:55 AM 14.0 °C - 5.0 °C 55% 1004.3 hPa 16.1 km NNW 16.7 km/h / 4.6 m/s - N/A   Clear
9:15 AM 14.0 °C - 5.0 °C 55% 1004.3 hPa 16.1 km NNW 13.0 km/h / 3.6 m/s - N/A   Clear
9:35 AM 15.0 °C - 5.0 °C 51% 1004.3 hPa 16.1 km NW 13.0 km/h / 3.6 m/s - N/A   Clear
9:55 AM 15.0 °C - 5.0 °C 51% 1004.3 hPa 16.1 km NW 16.7 km/h / 4.6 m/s - N/A   Clear
10:15 AM 17.0 °C - 4.0 °C 42% 1004.3 hPa 16.1 km NNW 16.7 km/h / 4.6 m/s 25.9 km/h / 7.2 m/s N/A   Clear
10:35 AM 17.0 °C - 4.0 °C 42% 1004.3 hPa 16.1 km North 9.3 km/h / 2.6 m/s - N/A   Clear
10:55 AM 18.0 °C - 4.0 °C 40% 1004.3 hPa 16.1 km North 18.5 km/h / 5.1 m/s - N/A   Clear
11:15 AM 18.0 °C - 4.0 °C 40% 1004.3 hPa 16.1 km NNW 11.1 km/h / 3.1 m/s - N/A   Clear
11:35 AM 18.0 °C - 4.0 °C 40% 1004.3 hPa 16.1 km NW 7.4 km/h / 2.1 m/s - N/A   Clear
11:55 AM 19.0 °C - 4.0 °C 37% 1004.3 hPa 16.1 km North 5.6 km/h / 1.5 m/s - N/A   Clear
12:15 PM 19.0 °C - 4.0 °C 37% 1004.3 hPa 16.1 km North 11.1 km/h / 3.1 m/s - N/A   Clear
12:35 PM 19.0 °C - 4.0 °C 37% 1004.3 hPa 16.1 km North 13.0 km/h / 3.6 m/s - N/A   Clear
12:55 PM 20.0 °C - 4.0 °C 35% 1004.3 hPa 16.1 km West 5.6 km/h / 1.5 m/s - N/A   Clear
1:15 PM 20.0 °C - 4.0 °C 35% 1004.3 hPa 16.1 km NNW 7.4 km/h / 2.1 m/s - N/A   Clear
1:55 PM 22.0 °C - 5.0 °C 33% 1003.9 hPa 16.1 km WSW 11.1 km/h / 3.1 m/s 38.9 km/h / 10.8 m/s N/A   Clear
2:15 PM 21.0 °C - 5.0 °C 35% 1003.9 hPa 16.1 km SW 22.2 km/h / 6.2 m/s - N/A   Clear
2:35 PM 21.0 °C - 5.0 °C 35% 1003.9 hPa 16.1 km WSW 20.4 km/h / 5.7 m/s - N/A   Clear
2:55 PM 22.0 °C - 5.0 °C 33% 1003.9 hPa 16.1 km SW 16.7 km/h / 4.6 m/s 25.9 km/h / 7.2 m/s N/A   Clear
3:15 PM 22.0 °C - 4.0 °C 31% 1003.9 hPa 16.1 km WSW 18.5 km/h / 5.1 m/s - N/A   Clear
3:35 PM 22.0 °C - 4.0 °C 31% 1004.3 hPa 16.1 km West 16.7 km/h / 4.6 m/s 25.9 km/h / 7.2 m/s N/A   Clear
3:55 PM 22.0 °C - 4.0 °C 31% 1004.3 hPa 16.1 km WSW 27.8 km/h / 7.7 m/s 37.0 km/h / 10.3 m/s N/A   Clear
4:15 PM 22.0 °C - 4.0 °C 31% 1004.3 hPa 16.1 km SW 25.9 km/h / 7.2 m/s 31.5 km/h / 8.7 m/s N/A   Clear
4:55 PM 21.0 °C - 4.0 °C 33% 1004.6 hPa 16.1 km WSW 20.4 km/h / 5.7 m/s - N/A   Clear
5:15 PM 21.0 °C - 3.0 °C 31% 1004.6 hPa 16.1 km West 20.4 km/h / 5.7 m/s - N/A   Clear
5:35 PM 21.0 °C - 4.0 °C 33% 1005.0 hPa 16.1 km SW 13.0 km/h / 3.6 m/s 25.9 km/h / 7.2 m/s N/A   Clear
5:55 PM 20.0 °C - 3.0 °C 33% 1005.0 hPa 16.1 km SW 7.4 km/h / 2.1 m/s - N/A   Clear
6:15 PM 20.0 °C - 4.0 °C 35% 1005.3 hPa 16.1 km SW 5.6 km/h / 1.5 m/s - N/A   Clear
6:35 PM 20.0 °C - 3.0 °C 33% 1005.3 hPa 16.1 km West 9.3 km/h / 2.6 m/s - N/A   Clear
6:55 PM 20.0 °C - 3.0 °C 33% 1005.3 hPa 16.1 km WNW 18.5 km/h / 5.1 m/s - N/A   Clear
7:15 PM 20.0 °C - 3.0 °C 33% 1005.6 hPa 16.1 km North 9.3 km/h / 2.6 m/s - N/A   Clear
7:35 PM 17.0 °C - 5.0 °C 45% 1005.6 hPa 16.1 km Calm Calm - N/A   Clear
7:55 PM 15.0 °C - 4.0 °C 48% 1006.0 hPa 16.1 km NNE 11.1 km/h / 3.1 m/s - N/A   Clear
8:15 PM 16.0 °C - 4.0 °C 45% 1006.0 hPa 16.1 km ENE 7.4 km/h / 2.1 m/s - N/A   Clear
8:35 PM 15.0 °C - 4.0 °C 48% 1006.3 hPa 16.1 km Calm Calm - N/A   Clear
8:55 PM 14.0 °C - 5.0 °C 55% 1006.7 hPa 16.1 km East 7.4 km/h / 2.1 m/s - N/A   Clear
9:15 PM 13.0 °C - 5.0 °C 58% 1006.7 hPa 16.1 km Calm Calm - N/A   Clear
9:55 PM 12.0 °C - 5.0 °C 62% 1007.3 hPa 16.1 km NE 9.3 km/h / 2.6 m/s - N/A   Clear
10:15 PM 12.0 °C - 5.0 °C 62% 1007.3 hPa 16.1 km Calm Calm - N/A   Clear
10:35 PM 13.0 °C - 5.0 °C 58% 1007.7 hPa 16.1 km SSW 5.6 km/h / 1.5 m/s - N/A   Clear
10:55 PM 12.0 °C - 5.0 °C 62% 1007.7 hPa 16.1 km SSW 5.6 km/h / 1.5 m/s - N/A   Clear
11:15 PM 13.0 °C - 5.0 °C 58% 1007.7 hPa 16.1 km Calm Calm - N/A   Clear
11:35 PM 10.0 °C - 4.0 °C 66% 1008.0 hPa 16.1 km East 7.4 km/h / 2.1 m/s - N/A   Clear
11:55 PM 12.0 °C - 6.0 °C 67% 1007.7 hPa 16.1 km East 9.3 km/h / 2.6 m/s - N/A   Clear